| time (UTC) | temp F | wind direction | speed MPH | gust MPH | rain 1hr in | rain 24hr in | rain mn in | humidity % | barometer mb |
| 20260504234557 | 48 | 176 | 1.0 | 4.0 | 0.02 | 1.22 | 0.06 | 100 | 1012.6 |
| 20260504233059 | 48 | 0 | 2.0 | 6.0 | 0.03 | 1.21 | 0.05 | 100 | 1012.6 |
| 20260504231555 | 48 | 87 | 1.0 | 7.0 | 0.04 | 1.20 | 0.04 | 100 | 1012.7 |
| 20260504230057 | 48 | 167 | 2.0 | 7.0 | 0.03 | 1.19 | 0.03 | 100 | 1012.7 |
| 20260504224556 | 49 | 80 | 1.0 | 5.0 | 0.03 | 1.19 | 0.03 | 100 | 1012.8 |
| 20260504223120 | 49 | 163 | 0.0 | 3.0 | 0.03 | 1.18 | 0.02 | 100 | 1013.0 |
| 20260504221600 | 49 | 227 | 1.0 | 6.0 | 0.00 | 1.15 | 0.00 | 100 | 1013.1 |
| 20260504220059 | 49 | 0 | 1.0 | 5.0 | 0.00 | 1.15 | 0.00 | 100 | 1013.0 |
| 20260504214557 | 50 | 171 | 1.0 | 4.0 | 0.01 | 1.15 | 1.15 | 100 | 1013.0 |
| 20260504213106 | 50 | 0 | 1.0 | 6.0 | 0.03 | 1.14 | 1.14 | 100 | 1013.3 |
| 20260504211649 | 49 | 219 | 2.0 | 4.0 | 0.06 | 1.14 | 1.14 | 100 | 1013.2 |
| 20260504210058 | 50 | 84 | 1.0 | 10.0 | 0.13 | 1.14 | 1.14 | 100 | 1013.3 |
| 20260504204558 | 49 | 121 | 1.0 | 7.0 | 0.18 | 1.14 | 1.14 | 100 | 1013.2 |
| 20260504203108 | 49 | 134 | 2.0 | 8.0 | 0.19 | 1.11 | 1.11 | 100 | 1013.1 |
| 20260504201611 | 50 | 216 | 3.0 | 8.0 | 0.19 | 1.08 | 1.08 | 100 | 1013.0 |
| 20260504194558 | 50 | 275 | 3.0 | 11.0 | 0.14 | 0.95 | 0.95 | 100 | 1012.5 |
| 20260504193107 | 51 | 265 | 1.0 | 7.0 | 0.17 | 0.91 | 0.91 | 100 | 1012.1 |
| 20260504191611 | 52 | 26 | 0.0 | 3.0 | 0.35 | 0.88 | 0.88 | 100 | 1011.7 |
| 20260504190106 | 52 | 46 | 1.0 | 3.0 | 0.40 | 0.82 | 0.82 | 100 | 1011.5 |
| 20260504184556 | 51 | 0 | 0.0 | 3.0 | 0.54 | 0.81 | 0.81 | 100 | 1011.3 |
| 20260504183056 | 51 | 0 | 0.0 | 3.0 | 0.60 | 0.74 | 0.74 | 100 | 1011.6 |
| 20260504181603 | 51 | 0 | 1.0 | 5.0 | 0.46 | 0.53 | 0.53 | 100 | 1011.3 |
| 20260504180057 | 52 | 202 | 2.0 | 5.0 | 0.36 | 0.41 | 0.41 | 100 | 1011.4 |
| 20260504174557 | 53 | 134 | 1.0 | 5.0 | 0.21 | 0.26 | 0.26 | 100 | 1011.6 |
| 20260504173057 | 53 | 140 | 0.0 | 9.0 | 0.07 | 0.13 | 0.13 | 100 | 1011.4 |
| 20260504171556 | 53 | 121 | 1.0 | 7.0 | 0.01 | 0.07 | 0.07 | 100 | 1011.3 |
| 20260504110105 | 58 | 272 | 1.0 | 4.0 | 0.00 | 0.05 | 0.05 | 100 | 1013.4 |
| 20260504081605 | 56 | 123 | 1.0 | 5.0 | 0.00 | 0.00 | 0.00 | 100 | 1013.8 |
| 20260504044556 | 54 | 167 | 1.0 | 7.0 | 0.00 | 0.00 | 0.00 | 100 | 1012.9 |
| 20260504043104 | 53 | 197 | 2.0 | 7.0 | 0.00 | 0.00 | 0.00 | 100 | 1012.6 |
| 20260504041554 | 53 | 182 | 1.0 | 9.0 | 0.00 | 0.00 | 0.00 | 100 | 1012.7 |
| 20260504040132 | 53 | 153 | 2.0 | 8.0 | 0.00 | 0.00 | 0.00 | 100 | 1012.7 |
| 20260504034601 | 53 | 96 | 3.0 | 7.0 | 0.00 | 0.00 | 0.00 | 100 | 1012.8 |
| 20260504033056 | 53 | 90 | 3.0 | 9.0 | 0.00 | 0.00 | 0.00 | 100 | 1012.8 |
| 20260504031606 | 53 | 0 | 2.0 | 10.0 | 0.00 | 0.00 | 0.00 | 100 | 1013.1 |
| 20260504030058 | 53 | 117 | 1.0 | 13.0 | 0.00 | 0.00 | 0.00 | 100 | 1013.2 |
| 20260504024603 | 53 | 157 | 5.0 | 15.0 | 0.00 | 0.00 | 0.00 | 100 | 1013.4 |
| 20260504023058 | 53 | 91 | 4.0 | 13.0 | 0.00 | 0.00 | 0.00 | 100 | 1013.3 |
| 20260504021557 | 53 | 204 | 4.0 | 13.0 | 0.00 | 0.00 | 0.00 | 100 | 1013.5 |
| 20260504020109 | 53 | 183 | 3.0 | 10.0 | 0.00 | 0.00 | 0.00 | 100 | 1013.7 |
| 20260504014556 | 53 | 233 | 3.0 | 14.0 | 0.00 | 0.00 | 0.00 | 100 | 1013.6 |
| 20260504013053 | 52 | 81 | 4.0 | 15.0 | 0.00 | 0.00 | 0.00 | 100 | 1013.5 |
| 20260504011553 | 52 | 81 | 1.0 | 11.0 | 0.00 | 0.00 | 0.00 | 100 | 1013.6 |
| 20260504010056 | 52 | 113 | 5.0 | 14.0 | 0.00 | 0.00 | 0.00 | 100 | 1013.6 |
| 20260504004555 | 52 | 138 | 5.0 | 15.0 | 0.00 | 0.00 | 0.00 | 100 | 1013.8 |
| 20260504003057 | 52 | 148 | 2.0 | 11.0 | 0.00 | 0.00 | 0.00 | 100 | 1013.7 |
| 20260504001556 | 52 | 74 | 5.0 | 14.0 | 0.00 | 0.00 | 0.00 | 100 | 1013.9 |
| 20260504000101 | 52 | 264 | 6.0 | 17.0 | 0.00 | 0.00 | 0.00 | 100 | 1014.1 |